Time,TemperatureF,DewpointF,PressureIn,WindDirection,WindDirectionDegrees,WindSpeedMPH,WindSpeedGustMPH,Humidity,HourlyPrecipIn,Conditions,Clouds,dailyrainin,SoftwareType,DateUTC
2013-07-06 00:02:00,79.0,61.0,29.89,SE,140,13.0,18.0,54,-99.99,,,-99.99,,2013-07-06 05:02:00,
2013-07-06 00:12:00,79.0,61.0,29.89,SSE,150,15.0,-999.0,54,-99.99,,,-99.99,,2013-07-06 05:12:00,
2013-07-06 00:22:00,79.0,61.0,29.89,SE,140,12.0,-999.0,54,-99.99,,,-99.99,,2013-07-06 05:22:00,
2013-07-06 00:33:00,79.0,61.0,29.89,SE,140,14.0,18.0,54,-99.99,,,-99.99,,2013-07-06 05:33:00,
2013-07-06 00:42:00,79.0,61.0,29.89,SSE,150,15.0,21.0,54,-99.99,,,-99.99,,2013-07-06 05:42:00,
2013-07-06 00:53:00,79.0,61.0,29.89,SSE,150,14.0,18.0,54,-99.99,,,-99.99,,2013-07-06 05:53:00,
2013-07-06 01:01:00,79.0,61.0,29.89,SSE,150,16.0,20.0,54,-99.99,,,-99.99,,2013-07-06 06:01:00,
2013-07-06 01:12:00,79.0,63.0,29.89,SSE,150,16.0,23.0,57,-99.99,,,-99.99,,2013-07-06 06:12:00,
2013-07-06 01:22:00,79.0,63.0,29.89,SSE,150,15.0,23.0,57,-99.99,,,-99.99,,2013-07-06 06:22:00,
2013-07-06 01:34:00,77.0,63.0,29.89,SSE,150,13.0,22.0,61,-99.99,,,-99.99,,2013-07-06 06:34:00,
2013-07-06 01:43:00,77.0,63.0,29.89,SSE,150,12.0,22.0,61,-99.99,,,-99.99,,2013-07-06 06:43:00,
2013-07-06 01:53:00,77.0,63.0,29.89,SSE,150,14.0,22.0,61,-99.99,,,-99.99,,2013-07-06 06:53:00,
2013-07-06 02:02:00,77.0,63.0,29.89,SSE,160,13.0,20.0,61,-99.99,,,-99.99,,2013-07-06 07:02:00,
2013-07-06 02:12:00,77.0,63.0,29.89,SSE,150,13.0,18.0,61,-99.99,,,-99.99,,2013-07-06 07:12:00,
2013-07-06 02:22:00,77.0,63.0,29.89,SSE,150,15.0,22.0,61,-99.99,,,-99.99,,2013-07-06 07:22:00,
2013-07-06 02:33:00,77.0,63.0,29.89,SSE,160,13.0,20.0,61,-99.99,,,-99.99,,2013-07-06 07:33:00,
2013-07-06 02:43:00,75.0,63.0,29.89,SSE,160,14.0,20.0,64,-99.99,,,-99.99,,2013-07-06 07:43:00,
2013-07-06 02:52:00,75.0,63.0,29.89,SSE,150,13.0,22.0,64,-99.99,,,-99.99,,2013-07-06 07:52:00,
2013-07-06 03:02:00,75.0,63.0,29.88,SSE,150,13.0,-999.0,64,-99.99,,,-99.99,,2013-07-06 08:02:00,
2013-07-06 03:11:00,75.0,63.0,29.88,SSE,160,13.0,18.0,64,-99.99,,,-99.99,,2013-07-06 08:11:00,
2013-07-06 03:21:00,75.0,63.0,29.88,SSE,150,13.0,18.0,64,-99.99,,,-99.99,,2013-07-06 08:21:00,
2013-07-06 03:33:00,75.0,63.0,29.88,SSE,150,12.0,18.0,64,-99.99,,,-99.99,,2013-07-06 08:33:00,
2013-07-06 03:43:00,75.0,63.0,29.88,SSE,150,12.0,18.0,64,-99.99,,,-99.99,,2013-07-06 08:43:00,
2013-07-06 03:54:00,75.0,63.0,29.89,SSE,160,13.0,20.0,64,-99.99,,,-99.99,,2013-07-06 08:54:00,
2013-07-06 04:02:00,75.0,63.0,29.88,SSE,160,14.0,18.0,64,-99.99,,,-99.99,,2013-07-06 09:02:00,
2013-07-06 04:11:00,75.0,63.0,29.88,SSE,160,13.0,-999.0,64,-99.99,,,-99.99,,2013-07-06 09:11:00,
2013-07-06 04:22:00,75.0,63.0,29.88,SSE,160,13.0,22.0,64,-99.99,,,-99.99,,2013-07-06 09:22:00,
2013-07-06 04:33:00,75.0,63.0,29.88,SSE,160,13.0,18.0,64,-99.99,,,-99.99,,2013-07-06 09:33:00,
2013-07-06 04:43:00,75.0,63.0,29.87,SSE,160,12.0,17.0,64,-99.99,,,-99.99,,2013-07-06 09:43:00,
2013-07-06 04:52:00,75.0,63.0,29.87,SSE,150,12.0,17.0,64,-99.99,,,-99.99,,2013-07-06 09:52:00,
2013-07-06 05:02:00,73.0,63.0,29.88,SSE,160,13.0,16.0,68,-99.99,,,-99.99,,2013-07-06 10:02:00,
2013-07-06 05:11:00,73.0,63.0,29.88,SSE,160,10.0,-999.0,68,-99.99,,,-99.99,,2013-07-06 10:11:00,
2013-07-06 05:22:00,73.0,63.0,29.88,SSE,160,10.0,-999.0,68,-99.99,,,-99.99,,2013-07-06 10:22:00,
2013-07-06 05:33:00,73.0,63.0,29.88,SSE,160,12.0,17.0,68,-99.99,,,-99.99,,2013-07-06 10:33:00,
2013-07-06 05:42:00,73.0,63.0,29.88,SSE,160,13.0,-999.0,68,-99.99,,,-99.99,,2013-07-06 10:42:00,
2013-07-06 06:01:00,75.0,63.0,29.89,SSE,160,9.0,-999.0,64,-99.99,,,-99.99,,2013-07-06 11:01:00,
2013-07-06 06:11:00,75.0,63.0,29.89,SSE,150,7.0,-999.0,64,-99.99,,,-99.99,,2013-07-06 11:11:00,
2013-07-06 06:22:00,75.0,63.0,29.91,ESE,120,6.0,-999.0,64,-99.99,,,-99.99,,2013-07-06 11:22:00,
2013-07-06 06:33:00,75.0,63.0,29.91,NE,50,5.0,-999.0,64,-99.99,,,-99.99,,2013-07-06 11:33:00,
2013-07-06 06:42:00,73.0,63.0,29.92,ENE,70,5.0,-999.0,68,-99.99,,,-99.99,,2013-07-06 11:42:00,
2013-07-06 06:52:00,73.0,63.0,29.92,North,0,0.0,-999.0,68,-99.99,,,-99.99,,2013-07-06 11:52:00,
2013-07-06 07:01:00,73.0,63.0,29.93,North,0,0.0,-999.0,68,-99.99,,,-99.99,,2013-07-06 12:01:00,
2013-07-06 07:11:00,73.0,64.0,29.93,North,360,5.0,-999.0,73,-99.99,,,-99.99,,2013-07-06 12:11:00,
2013-07-06 07:22:00,72.0,64.0,29.94,North,360,6.0,-999.0,78,-99.99,,,-99.99,,2013-07-06 12:22:00,
2013-07-06 07:33:00,70.0,66.0,29.95,NNE,20,3.0,-999.0,88,-99.99,,,-99.99,,2013-07-06 12:33:00,
2013-07-06 07:43:00,70.0,66.0,29.95,ENE,70,3.0,-999.0,88,-99.99,,,-99.99,,2013-07-06 12:43:00,
2013-07-06 07:52:00,70.0,66.0,29.94,ESE,110,3.0,-999.0,88,-99.99,,,-99.99,,2013-07-06 12:52:00,
2013-07-06 08:01:00,70.0,66.0,29.94,NE,40,5.0,-999.0,88,-99.99,,,-99.99,,2013-07-06 13:01:00,
2013-07-06 08:12:00,70.0,66.0,29.93,East,100,6.0,-999.0,88,-99.99,,,-99.99,,2013-07-06 13:12:00,
2013-07-06 08:22:00,70.0,66.0,29.93,East,100,6.0,-999.0,88,-99.99,,,-99.99,,2013-07-06 13:22:00,
2013-07-06 08:33:00,70.0,66.0,29.93,East,100,6.0,-999.0,88,-99.99,,,-99.99,,2013-07-06 13:33:00,
2013-07-06 08:43:00,70.0,66.0,29.93,ESE,120,7.0,-999.0,88,-99.99,,,-99.99,,2013-07-06 13:43:00,
2013-07-06 08:52:00,72.0,66.0,29.93,ESE,120,8.0,-999.0,83,-99.99,,,-99.99,,2013-07-06 13:52:00,
2013-07-06 09:02:00,70.0,66.0,29.93,ESE,120,8.0,-999.0,88,-99.99,,,-99.99,,2013-07-06 14:02:00,
2013-07-06 09:22:00,70.0,66.0,29.92,ESE,120,10.0,-999.0,88,-99.99,,,-99.99,,2013-07-06 14:22:00,
2013-07-06 09:34:00,70.0,66.0,29.92,SE,130,10.0,-999.0,88,-99.99,,,-99.99,,2013-07-06 14:34:00,
2013-07-06 09:42:00,72.0,66.0,29.91,ESE,120,13.0,-999.0,83,-99.99,,,-99.99,,2013-07-06 14:42:00,
2013-07-06 09:53:00,72.0,66.0,29.91,SE,130,9.0,-999.0,83,-99.99,,,-99.99,,2013-07-06 14:53:00,
2013-07-06 10:02:00,73.0,66.0,29.91,SE,140,10.0,-999.0,78,-99.99,,,-99.99,,2013-07-06 15:02:00,
2013-07-06 10:12:00,73.0,66.0,29.91,SE,140,10.0,-999.0,78,-99.99,,,-99.99,,2013-07-06 15:12:00,
2013-07-06 10:22:00,75.0,66.0,29.91,SE,140,13.0,17.0,73,-99.99,,,-99.99,,2013-07-06 15:22:00,
2013-07-06 10:33:00,75.0,66.0,29.91,SSE,150,12.0,-999.0,73,-99.99,,,-99.99,,2013-07-06 15:33:00,
2013-07-06 10:43:00,75.0,66.0,29.90,SE,140,13.0,18.0,73,-99.99,,,-99.99,,2013-07-06 15:43:00,
2013-07-06 10:52:00,75.0,66.0,29.90,SE,140,13.0,18.0,73,-99.99,,,-99.99,,2013-07-06 15:52:00,
2013-07-06 11:14:00,75.0,64.0,29.90,SE,140,10.0,-999.0,69,-99.99,,,-99.99,,2013-07-06 16:14:00,
2013-07-06 11:23:00,75.0,64.0,29.90,SSE,150,12.0,17.0,69,-99.99,,,-99.99,,2013-07-06 16:23:00,
2013-07-06 11:39:00,75.0,64.0,29.90,SSE,150,12.0,16.0,69,-99.99,,,-99.99,,2013-07-06 16:39:00,
2013-07-06 11:49:00,75.0,64.0,29.91,SSE,150,10.0,18.0,69,-99.99,,,-99.99,,2013-07-06 16:49:00,
2013-07-06 12:18:00,77.0,64.0,29.90,SSE,150,9.0,-999.0,65,-99.99,,,-99.99,,2013-07-06 17:18:00,
2013-07-06 12:27:00,79.0,64.0,29.90,SSE,160,9.0,-999.0,61,-99.99,,,-99.99,,2013-07-06 17:27:00,
2013-07-06 12:39:00,79.0,64.0,29.90,SSE,150,10.0,-999.0,61,-99.99,,,-99.99,,2013-07-06 17:39:00,
2013-07-06 12:57:00,81.0,64.0,29.89,SSE,150,9.0,-999.0,57,-99.99,,,-99.99,,2013-07-06 17:57:00,
2013-07-06 13:06:00,81.0,64.0,29.89,SSE,150,8.0,-999.0,57,-99.99,,,-99.99,,2013-07-06 18:06:00,
2013-07-06 13:39:00,81.0,64.0,29.89,SSE,150,8.0,-999.0,57,-99.99,,,-99.99,,2013-07-06 18:39:00,
2013-07-06 14:08:00,81.0,64.0,29.89,SE,140,8.0,-999.0,57,-99.99,,,-99.99,,2013-07-06 19:08:00,
2013-07-06 14:18:00,81.0,63.0,29.89,SE,130,8.0,-999.0,54,-99.99,,,-99.99,,2013-07-06 19:18:00,
2013-07-06 14:28:00,81.0,63.0,29.89,ESE,120,7.0,-999.0,54,-99.99,,,-99.99,,2013-07-06 19:28:00,
2013-07-06 14:38:00,81.0,64.0,29.89,SE,130,7.0,-999.0,57,-99.99,,,-99.99,,2013-07-06 19:38:00,
2013-07-06 14:49:00,81.0,64.0,29.88,SE,130,8.0,-999.0,57,-99.99,,,-99.99,,2013-07-06 19:49:00,
2013-07-06 14:54:00,82.0,64.0,29.88,SE,130,9.0,-999.0,54,-99.99,,,-99.99,,2013-07-06 19:54:00,
2013-07-06 15:18:00,86.0,64.0,29.87,SE,140,12.0,-999.0,48,-99.99,,,-99.99,,2013-07-06 20:18:00,
2013-07-06 15:27:00,86.0,64.0,29.86,SE,140,12.0,-999.0,48,-99.99,,,-99.99,,2013-07-06 20:27:00,
2013-07-06 16:39:00,93.0,61.0,29.85,SE,140,17.0,23.0,34,-99.99,,,-99.99,,2013-07-06 21:39:00,
2013-07-06 16:57:00,93.0,61.0,29.85,SE,140,14.0,24.0,34,-99.99,,,-99.99,,2013-07-06 21:57:00,
2013-07-06 17:08:00,93.0,61.0,29.85,SSE,150,18.0,25.0,34,-99.99,,,-99.99,,2013-07-06 22:08:00,
2013-07-06 17:27:00,93.0,61.0,29.85,SSE,150,13.0,21.0,34,-99.99,,,-99.99,,2013-07-06 22:27:00,
2013-07-06 17:57:00,91.0,61.0,29.84,SE,140,10.0,17.0,36,-99.99,,,-99.99,,2013-07-06 22:57:00,
2013-07-06 18:18:00,90.0,66.0,29.84,SE,130,13.0,18.0,46,-99.99,,,-99.99,,2013-07-06 23:18:00,
2013-07-06 19:19:00,90.0,68.0,29.83,SE,130,9.0,-999.0,49,-99.99,,,-99.99,,2013-07-07 00:19:00,
2013-07-06 19:39:00,90.0,68.0,29.84,SE,140,7.0,-999.0,49,-99.99,,,-99.99,,2013-07-07 00:39:00,
2013-07-06 19:48:00,90.0,66.0,29.83,SSE,160,8.0,-999.0,46,-99.99,,,-99.99,,2013-07-07 00:48:00,
2013-07-06 20:38:00,91.0,55.0,29.84,SSE,150,12.0,21.0,29,-99.99,,,-99.99,,2013-07-07 01:38:00,
2013-07-06 20:56:00,88.0,66.0,29.85,SSE,150,14.0,-999.0,48,-99.99,,,-99.99,,2013-07-07 01:56:00,
2013-07-06 21:08:00,86.0,66.0,29.85,SE,140,15.0,23.0,51,-99.99,,,-99.99,,2013-07-07 02:08:00,
2013-07-06 21:17:00,86.0,66.0,29.85,SE,140,16.0,24.0,51,-99.99,,,-99.99,,2013-07-07 02:17:00,
2013-07-06 21:36:00,84.0,66.0,29.86,SSE,150,16.0,24.0,54,-99.99,,,-99.99,,2013-07-07 02:36:00,
2013-07-06 21:45:00,84.0,66.0,29.86,SSE,150,17.0,29.0,54,-99.99,,,-99.99,,2013-07-07 02:45:00,
2013-07-06 21:54:00,84.0,66.0,29.86,SSE,150,20.0,27.0,54,-99.99,,,-99.99,,2013-07-07 02:54:00,
2013-07-06 22:07:00,84.0,66.0,29.86,SSE,150,18.0,27.0,54,-99.99,,,-99.99,,2013-07-07 03:07:00,
2013-07-06 22:17:00,84.0,66.0,29.87,SSE,150,20.0,28.0,54,-99.99,,,-99.99,,2013-07-07 03:17:00,
2013-07-06 22:26:00,84.0,66.0,29.88,SSE,150,20.0,30.0,54,-99.99,,,-99.99,,2013-07-07 03:26:00,
2013-07-06 22:35:00,82.0,66.0,29.89,SSE,160,20.0,30.0,58,-99.99,,,-99.99,,2013-07-07 03:35:00,
2013-07-06 23:01:00,82.0,66.0,29.90,SSE,160,18.0,29.0,58,-99.99,,,-99.99,,2013-07-07 04:01:00,
2013-07-06 23:11:00,82.0,66.0,29.90,SSE,160,21.0,33.0,58,-99.99,,,-99.99,,2013-07-07 04:11:00,
2013-07-06 23:21:00,82.0,66.0,29.90,SSE,160,16.0,29.0,58,-99.99,,,-99.99,,2013-07-07 04:21:00,
2013-07-06 23:31:00,82.0,66.0,29.90,SSE,150,15.0,24.0,58,-99.99,,,-99.99,,2013-07-07 04:31:00,
2013-07-06 23:41:00,82.0,66.0,29.91,SSE,150,17.0,24.0,58,-99.99,,,-99.99,,2013-07-07 04:41:00,
2013-07-06 23:51:00,82.0,66.0,29.91,SSE,150,17.0,22.0,58,-99.99,,,-99.99,,2013-07-07 04:51:00,